Location: Vale
(35.4830°N, 81.3830°W)
Time: 16:47:10
(UTC-04:00)

Cosmos 2237 Rocket - Visible Passes

Search period start: 31 March 2015 00:00
Search period end: 10 April 2015 00:00
Orbit: 833 x 852 km, 71.0° (Epoch: 30 March)

Date Brightness Start Highest point End Pass type
(mag) Time Alt. Az. Time Alt. Az. Time Alt. Az.
31 Mar 2.6 20:44:55 10° N 20:50:21 45° ENE 20:54:17 18° SE visible
31 Mar 4.2 22:29:52 10° NW 22:34:08 21° WSW 22:36:11 17° SW visible
01 Apr 2.6 20:30:10 10° N 20:35:33 43° ENE 20:40:47 11° SE visible
01 Apr 4.2 22:14:58 10° NW 22:19:22 23° WSW 22:22:41 13° SW visible
02 Apr 2.7 20:15:25 10° N 20:20:45 41° ENE 20:26:05 10° SE visible
02 Apr 4.2 22:00:05 10° NW 22:04:36 24° WSW 22:08:56 10° SSW visible
03 Apr 4.2 21:45:12 10° NW 21:49:50 25° WSW 21:54:17 10° SSW visible
04 Apr 4.2 21:30:20 10° NW 21:35:03 26° WSW 21:39:37 10° SSW visible
05 Apr 4.1 21:15:28 10° NW 21:20:17 28° WSW 21:24:57 10° SSW visible
06 Apr 4.1 21:00:37 10° NW 21:05:31 29° WSW 21:10:16 10° SSW visible
07 Apr 4.1 20:45:46 10° NW 20:50:45 31° WSW 20:55:36 10° SSW visible
08 Apr 4.0 20:30:55 10° NW 20:35:58 33° WSW 20:40:55 10° SSW visible
09 Apr 4.0 20:16:05 10° NW 20:21:12 34° WSW 20:26:13 10° SSW visible
